Vorticity
17 15 16 18 19 20 20 21 23 23 23 22 21 20 19 18 16 15 14 15 15 15 15 15 17 19 22 24 24 25 25 25 24 22 22 26 32 39 45 45 36 23
23 16 14 16 18 19 19 18 19 19 19 19 18 17 16 15 15 15 15 16 17 18 19 19 19 19 19 21 21 22 23 25 26 24 21 21 22 26 34 46 52 50
27 23 18 15 15 18 19 19 18 17 15 13 13 13 13 13 13 14 16 19 22 23 23 23 23 22 21 22 22 21 20 21 24 26 24 21 20 20 22 30 41 50
21 23 23 19 17 16 16 17 17 16 14 13 12 12 12 12 13 14 18 23 26 26 27 28 28 28 25 24 25 25 23 21 20 23 27 23 19 17 16 20 28 36
14 15 17 18 18 18 17 17 17 16 15 13 13 12 13 13 13 14 18 25 26 24 27 31 32 33 30 27 28 27 25 26 23 21 26 25 20 17 13 12 16 22
11 11 11 11 13 14 15 17 18 19 19 18 17 15 13 12 12 13 16 21 24 22 24 30 32 33 32 29 28 27 26 28 26 23 25 24 19 16 12 9 10 12
10 10 9 9 9 9 10 11 12 14 16 18 20 20 18 14 12 11 13 18 22 21 21 24 28 30 31 30 30 30 29 28 25 24 24 20 14 12 9 8 10 12
9 9 8 8 8 8 8 9 10 11 12 12 14 16 18 19 17 13 11 13 19 22 20 20 22 24 27 28 28 28 27 25 23 21 17 13 10 10 10 11 14 17
10 9 8 6 5 5 7 8 9 10 11 12 12 12 12 14 18 19 15 11 13 18 21 20 20 19 21 22 22 21 21 20 17 14 11 11 11 11 12 15 17 20
10 9 9 7 5 4 4 5 6 6 7 9 11 13 12 11 12 16 19 17 13 13 17 20 21 19 17 18 18 16 13 12 11 10 11 11 12 11 11 12 15 19
10 9 9 8 6 5 3 3 4 4 4 5 7 10 14 14 11 10 14 19 18 15 14 15 19 21 19 16 15 14 11 9 8 9 11 10 9 9 10 10 11 13
10 9 9 9 7 6 4 3 3 3 2 2 4 6 9 14 15 11 9 11 17 19 18 15 14 18 20 18 15 13 13 11 9 8 9 10 9 7 8 10 10 10
12 10 9 9 9 7 5 4 4 4 4 3 3 3 5 9 14 15 10 8 11 15 19 20 17 15 17 19 18 16 14 13 12 11 10 9 9 8 8 10 11 10
15 12 9 9 9 8 7 6 5 5 6 5 5 3 3 5 10 13 12 10 9 10 12 18 23 22 17 16 17 18 18 16 14 13 13 12 11 9 8 9 11 11
18 15 11 9 8 8 8 8 7 7 7 7 7 6 4 3 5 9 12 12 10 8 7 9 16 23 24 21 16 14 15 18 17 15 14 14 13 10 7 7 9 11
20 18 16 12 9 7 8 8 8 8 8 8 6 6 5 4 3 4 8 12 13 11 8 5 5 11 19 24 25 20 15 12 14 16 15 14 13 10 8 8 9 11
20 20 19 18 14 9 6 7 8 9 9 9 6 4 3 3 3 2 2 6 10 13 14 11 7 5 7 13 21 26 25 19 13 11 11 12 11 10 10 11 11 11
19 19 20 21 20 15 8 6 6 7 9 10 8 5 3 1 1 1 1 0 2 6 11 15 15 11 7 7 8 14 23 27 25 18 12 9 9 10 11 11 11 12
18 19 20 21 22 21 16 10 6 5 8 10 9 7 5 2 0 0 1 1 0 1 3 8 13 15 13 11 10 8 9 15 23 27 24 18 13 10 9 10 10 11
16 17 20 22 22 23 22 18 11 6 5 8 9 8 7 5 2 1 1 1 1 2 2 3 5 9 12 13 14 14 11 8 9 16 22 26 24 18 13 10 9 9
14 15 18 21 22 22 23 23 19 13 7 6 6 7 8 7 5 2 0 0 -0 0 3 5 3 2 5 9 11 14 16 14 9 7 10 15 21 24 23 18 13 10
12 13 15 19 21 22 23 25 25 21 15 10 6 5 7 7 6 3 1 0 -0 -1 1 5 5 2 1 4 7 10 14 16 14 11 10 9 11 15 21 23 21 14
11 12 13 15 18 21 23 25 27 25 21 17 11 6 5 6 5 4 2 -0 -0 0 -1 -0 2 3 1 1 3 5 10 14 14 13 13 12 10 10 12 19 26 23
9 10 12 13 15 18 22 25 27 26 25 22 17 11 9 8 5 3 2 1 -0 0 0 -1 -0 -0 -1 1 2 3 5 10 13 13 12 12 12 11 10 17 28 31
8 9 10 11 12 14 20 25 27 27 25 24 21 17 14 13 10 6 4 3 2 0 1 1 0 -1 -1 0 2 2 2 6 11 12 12 11 12 12 14 21 31 37
8 8 8 9 10 10 15 22 26 27 27 25 22 18 16 16 16 13 9 7 5 3 2 1 0 1 1 1 2 1 1 4 9 11 11 12 12 11 15 25 32 33
Height
5390 5387 5385 5382 5381 5379 5377 5375 5374 5372 5371 5370 5369 5368 5367 5366 5364 5363 5362 5360 5359 5357 5357 5356 5355 5355 5355 5356 5357 5358 5360 5362 5365 5368 5370 5372 5376 5380 5383 5387 5392 5396
5389 5386 5383 5380 5378 5376 5374 5372 5371 5369 5368 5367 5365 5364 5363 5361 5359 5358 5356 5354 5352 5350 5348 5347 5346 5346 5346 5347 5348 5349 5351 5353 5355 5357 5360 5362 5365 5369 5372 5375 5377 5381
5388 5385 5382 5379 5377 5374 5372 5370 5368 5367 5365 5364 5362 5360 5359 5357 5355 5353 5350 5348 5345 5342 5340 5339 5337 5337 5337 5337 5339 5340 5342 5344 5346 5348 5350 5353 5355 5358 5361 5363 5365 5367
5387 5384 5381 5378 5375 5373 5370 5368 5366 5364 5363 5361 5359 5357 5355 5353 5351 5348 5345 5342 5339 5336 5333 5331 5329 5328 5328 5329 5330 5332 5333 5335 5337 5340 5342 5344 5346 5349 5351 5352 5354 5356
5387 5383 5380 5377 5374 5371 5369 5366 5364 5362 5360 5358 5356 5354 5351 5349 5347 5344 5340 5337 5334 5331 5327 5324 5322 5321 5321 5321 5322 5324 5326 5327 5330 5332 5335 5337 5338 5341 5343 5343 5345 5346
5387 5383 5380 5377 5374 5371 5368 5365 5362 5360 5357 5355 5353 5350 5348 5345 5343 5340 5337 5333 5330 5326 5323 5320 5317 5316 5315 5315 5316 5317 5319 5321 5323 5326 5328 5330 5331 5333 5335 5336 5337 5338
5386 5383 5379 5376 5373 5370 5367 5364 5362 5359 5356 5353 5351 5348 5345 5343 5340 5337 5334 5330 5327 5323 5320 5317 5314 5313 5312 5311 5312 5313 5314 5316 5318 5320 5322 5323 5325 5326 5328 5330 5331 5332
5385 5381 5378 5375 5372 5370 5367 5364 5361 5358 5354 5352 5349 5346 5343 5340 5337 5334 5331 5328 5324 5321 5318 5315 5313 5311 5309 5309 5309 5309 5311 5312 5313 5315 5317 5318 5320 5321 5322 5324 5325 5325
5383 5380 5377 5374 5371 5368 5366 5363 5360 5356 5353 5350 5347 5344 5341 5338 5335 5332 5329 5326 5323 5319 5316 5313 5311 5309 5308 5307 5307 5307 5308 5309 5310 5312 5313 5314 5315 5316 5317 5318 5319 5318
5382 5379 5376 5373 5370 5367 5364 5361 5358 5355 5352 5349 5345 5342 5339 5336 5333 5330 5327 5324 5321 5318 5315 5312 5310 5308 5307 5306 5306 5306 5306 5307 5308 5309 5309 5310 5311 5312 5312 5312 5312 5312
5380 5377 5374 5371 5368 5366 5363 5360 5357 5354 5350 5347 5344 5341 5337 5334 5331 5328 5325 5322 5319 5317 5314 5311 5309 5307 5306 5305 5305 5304 5305 5305 5305 5306 5306 5307 5307 5307 5308 5308 5307 5306
5378 5375 5372 5369 5366 5363 5361 5358 5355 5352 5349 5346 5343 5339 5336 5333 5330 5327 5324 5321 5318 5315 5313 5311 5308 5307 5305 5304 5303 5303 5303 5303 5303 5303 5303 5303 5304 5304 5304 5303 5302 5301
5376 5373 5369 5366 5363 5361 5358 5356 5353 5350 5347 5344 5341 5338 5335 5332 5329 5325 5322 5320 5317 5314 5312 5309 5307 5306 5304 5303 5302 5301 5301 5301 5300 5300 5300 5300 5300 5300 5300 5299 5299 5297
5373 5370 5366 5363 5361 5358 5356 5353 5350 5348 5345 5343 5340 5337 5334 5331 5328 5325 5322 5319 5316 5313 5311 5308 5306 5304 5303 5301 5300 5299 5299 5298 5298 5298 5298 5297 5297 5297 5296 5296 5295 5294
5370 5366 5363 5360 5358 5355 5353 5350 5348 5345 5343 5340 5338 5335 5333 5330 5327 5324 5321 5318 5315 5313 5310 5308 5305 5303 5301 5300 5298 5298 5297 5296 5295 5295 5295 5294 5294 5293 5293 5292 5292 5291
5366 5363 5360 5357 5354 5352 5349 5347 5345 5343 5340 5338 5336 5333 5331 5328 5325 5322 5320 5317 5314 5312 5309 5307 5304 5302 5300 5298 5296 5295 5294 5294 5293 5292 5292 5291 5291 5290 5290 5289 5288 5288
5363 5359 5356 5354 5351 5349 5346 5344 5342 5340 5337 5335 5333 5331 5328 5326 5323 5321 5318 5316 5313 5310 5308 5305 5303 5301 5299 5297 5295 5293 5292 5291 5290 5290 5289 5288 5288 5287 5287 5286 5285 5285
5361 5356 5353 5350 5347 5345 5343 5340 5338 5336 5334 5332 5330 5328 5326 5324 5321 5319 5317 5314 5312 5309 5307 5304 5302 5299 5297 5295 5294 5292 5290 5288 5287 5287 5286 5285 5285 5284 5284 5283 5283 5282
5358 5354 5350 5346 5343 5341 5338 5336 5335 5333 5331 5329 5327 5325 5323 5321 5319 5317 5314 5312 5310 5307 5305 5303 5300 5298 5295 5293 5292 5290 5288 5286 5285 5284 5283 5282 5281 5281 5280 5280 5279 5279
5356 5351 5346 5343 5339 5337 5334 5332 5330 5329 5327 5325 5323 5321 5320 5318 5316 5314 5311 5310 5308 5305 5303 5301 5299 5296 5294 5291 5290 5288 5286 5285 5283 5281 5280 5279 5278 5277 5277 5276 5276 5276
5354 5348 5344 5339 5336 5333 5330 5328 5326 5324 5323 5321 5319 5317 5316 5314 5312 5310 5308 5306 5305 5303 5300 5298 5297 5295 5292 5290 5287 5286 5284 5282 5281 5279 5277 5276 5275 5274 5273 5272 5272 5272
5352 5346 5341 5337 5332 5329 5326 5323 5321 5319 5318 5317 5315 5313 5312 5310 5309 5307 5305 5303 5301 5300 5297 5295 5294 5292 5290 5288 5285 5283 5282 5280 5278 5276 5275 5273 5272 5270 5269 5268 5268 5268
5350 5345 5339 5334 5330 5325 5322 5319 5317 5315 5313 5312 5310 5308 5307 5306 5304 5303 5301 5300 5297 5296 5294 5292 5290 5289 5287 5285 5283 5281 5279 5277 5275 5274 5272 5270 5268 5267 5266 5264 5263 5263
5348 5343 5337 5332 5327 5323 5319 5316 5313 5310 5308 5306 5305 5303 5301 5301 5300 5298 5297 5296 5294 5292 5291 5289 5287 5286 5284 5282 5280 5278 5277 5275 5273 5271 5269 5267 5265 5264 5262 5260 5258 5258
5346 5341 5335 5330 5325 5320 5316 5312 5309 5306 5303 5301 5300 5298 5296 5296 5295 5293 5291 5291 5289 5288 5286 5285 5284 5282 5280 5278 5277 5275 5274 5272 5270 5268 5266 5264 5262 5260 5258 5256 5254 5253
5344 5338 5333 5328 5323 5318 5313 5310 5306 5302 5299 5296 5294 5293 5291 5290 5289 5288 5286 5285 5284 5283 5281 5281 5279 5278 5276 5275 5273 5272 5270 5269 5267 5265 5263 5261 5259 5257 5255 5252 5250 5249